Preview of NWS' New Version of Forecast
This preview is not operational and should not be used for support decisions.

Regional Weather Roundup (RWR)

Issued by National Weather Service (NWS)

                            
000
ASPQ40 PGUM 192210
RWRPQ 
WEATHER ROUNDUP FOR THE MARIANAS AND MICRONESIA
NATIONAL WEATHER SERVICE TIYAN GU
800 AM CHST TUE AUG 20 2019

GUZ001>004-192300-
MARIANA ISLANDS-
  
CITY           SKY/WX    TMP DP  RH WIND       PRES   REMARKS
GUAM AIRPORT   MOSUNNY   79  75  89 S5        29.85R                  
ANDERSEN AFB   DRIZZLE   79  77  94 SW8       29.85R                  
ROTA AIRPORT   MOSUNNY   81  75  83 S14       29.81R                  
TINIAN AP      MOSUNNY   82  77  83 S9        29.81R HX  91           
SAIPAN AP      MOSUNNY   82  77  83 S14       29.83R HX  91           

$$

PMZ161-192300-
REPUBLIC OF PALAU-
  
CITY           SKY/WX    TMP DP  RH WIND       PRES   REMARKS
KOROR AP       CLOUDY    81  75  83 SW8         N/A                   
KOROR WSO      NOT AVBL                                               

$$

PMZ171>174-192300-
FEDERATED STATES OF MICRONESIA-
  
CITY           SKY/WX    TMP DP  RH WIND       PRES   REMARKS
YAP AIRPORT    CLOUDY    82  75  78 VRB6      29.78R                  
CHUUK AP       CLOUDY    82  79  89 VRB7      29.83R HX  93           
POHNPEI AP     CLOUDY    84  77  79 CALM      29.79  HX  94           
POHNPEI WSO    CLOUDY    84  79  84 NW3       29.84R HX  96           
KOSRAE AP      PTSUNNY   88  79  74 N6        29.79  HX 102           

$$

PMZ181-192300-
REPUBLIC OF THE MARSHALL ISLANDS-
  
CITY           SKY/WX    TMP DP  RH WIND       PRES   REMARKS
KWAJALEIN AP   SUNNY     86  77  74 S5        29.80F HX  97           
MAJURO AP      PTSUNNY   84  77  79 S9        29.83  HX  94           
MAJURO WSO     PTSUNNY   86  77  74 CALM      29.81F HX  97           

$$